When you browse on this site, cookies collect data to enhance your experience and personalize the content and advertising you see.
Visit our Privacy Policy to learn more. By continuing to use the site, you agree to this use of cookies and data.

Stündliche Wetter Cavarzere

Heute, 16 Juli, Donnerstag

Zeit Temperatur Niederschläge Wind Luftdruck Luftfeuchtigkeit
00:00 +19°C° 0.1 mm 2 m/S 760 mmHg 79%
01:00 +19°C° 0 mm 2 m/S 760 mmHg 75%
02:00 +19°C° 0 mm 2 m/S 760 mmHg 76%
03:00 +18°C° 0 mm 2 m/S 760 mmHg 78%
04:00 +18°C° 0 mm 2 m/S 760 mmHg 79%
05:00 +19°C° 0 mm 2 m/S 760 mmHg 78%
06:00 +20°C° 0 mm 2 m/S 760 mmHg 78%
07:00 +21°C° 0 mm 2 m/S 760 mmHg 77%
08:00 +23°C° 0.1 mm 2 m/S 760 mmHg 71%
09:00 +25°C° 0.1 mm 2 m/S 760 mmHg 66%
10:00 +26°C° 0.1 mm 2 m/S 760 mmHg 60%
11:00 +27°C° 0.1 mm 2 m/S 760 mmHg 57%
12:00 +28°C° 0.1 mm 2 m/S 760 mmHg 54%
13:00 +29°C° 0.1 mm 2 m/S 759 mmHg 51%
14:00 +29°C° 0 mm 2 m/S 759 mmHg 51%
15:00 +29°C° 0 mm 2 m/S 758 mmHg 52%
16:00 +29°C° 0 mm 2 m/S 758 mmHg 52%
17:00 +27°C° 0 mm 3 m/S 758 mmHg 59%
18:00 +26°C° 0 mm 3 m/S 758 mmHg 65%
19:00 +25°C° 0 mm 3 m/S 758 mmHg 72%
20:00 +24°C° 0.1 mm 3 m/S 758 mmHg 74%
21:00 +22°C° 0.1 mm 3 m/S 758 mmHg 76%
22:00 +21°C° 0.1 mm 2 m/S 759 mmHg 78%
23:00 +21°C° 0.4 mm 3 m/S 759 mmHg 81%

Morgen, 17 Juli, Freitag

Zeit Temperatur Niederschläge Wind Luftdruck Luftfeuchtigkeit
00:00 +20°C° 0.4 mm 3 m/S 759 mmHg 83%
01:00 +20°C° 0.4 mm 3 m/S 759 mmHg 86%
02:00 +20°C° 0.4 mm 4 m/S 758 mmHg 88%
03:00 +20°C° 0.4 mm 4 m/S 758 mmHg 89%
04:00 +20°C° 0.4 mm 5 m/S 758 mmHg 91%
05:00 +20°C° 0.5 mm 5 m/S 758 mmHg 91%
06:00 +20°C° 0.5 mm 4 m/S 758 mmHg 90%
07:00 +20°C° 0.5 mm 4 m/S 758 mmHg 90%
08:00 +21°C° 0.7 mm 4 m/S 758 mmHg 87%
09:00 +22°C° 0.7 mm 4 m/S 759 mmHg 84%
10:00 +22°C° 0.7 mm 4 m/S 759 mmHg 80%
11:00 +23°C° 0.5 mm 4 m/S 759 mmHg 77%
12:00 +25°C° 0.5 mm 5 m/S 759 mmHg 74%
13:00 +24°C° 0.5 mm 6 m/S 759 mmHg 71%
14:00 +24°C° 0.1 mm 6 m/S 759 mmHg 68%
15:00 +25°C° 0.1 mm 5 m/S 758 mmHg 64%
16:00 +25°C° 0.1 mm 5 m/S 758 mmHg 61%
17:00 +25°C° 0 mm 4 m/S 758 mmHg 65%
18:00 +24°C° 0 mm 3 m/S 759 mmHg 70%
19:00 +23°C° 0 mm 2 m/S 759 mmHg 74%
20:00 +21°C° 0 mm 2 m/S 759 mmHg 75%
21:00 +21°C° 0 mm 1 m/S 760 mmHg 76%
22:00 +20°C° 0 mm 1 m/S 760 mmHg 78%
23:00 +20°C° 0 mm 1 m/S 760 mmHg 77%

übermorgen, 18 Juli, Samstag

Zeit Temperatur Niederschläge Wind Luftdruck Luftfeuchtigkeit
00:00 +19°C° 0 mm 2 m/S 760 mmHg 77%
01:00 +19°C° 0 mm 2 m/S 760 mmHg 76%
02:00 +19°C° 0 mm 2 m/S 760 mmHg 77%
03:00 +18°C° 0 mm 2 m/S 760 mmHg 78%
04:00 +18°C° 0 mm 2 m/S 760 mmHg 79%
05:00 +19°C° 0 mm 3 m/S 760 mmHg 78%
06:00 +20°C° 0 mm 3 m/S 760 mmHg 77%
07:00 +21°C° 0 mm 4 m/S 760 mmHg 76%
08:00 +22°C° 0 mm 3 m/S 760 mmHg 70%
09:00 +24°C° 0 mm 3 m/S 760 mmHg 65%
10:00 +25°C° 0 mm 3 m/S 760 mmHg 59%
11:00 +26°C° 0 mm 3 m/S 760 mmHg 55%
12:00 +26°C° 0 mm 2 m/S 760 mmHg 52%
13:00 +27°C° 0 mm 2 m/S 759 mmHg 48%
14:00 +27°C° 0 mm 2 m/S 759 mmHg 48%
15:00 +27°C° 0 mm 2 m/S 759 mmHg 48%
16:00 +27°C° 0 mm 2 m/S 758 mmHg 48%
17:00 +26°C° 0 mm 2 m/S 758 mmHg 53%
18:00 +25°C° 0 mm 2 m/S 758 mmHg 58%
19:00 +23°C° 0 mm 2 m/S 759 mmHg 64%
20:00 +23°C° 0.1 mm 2 m/S 759 mmHg 63%
21:00 +21°C° 0.1 mm 2 m/S 760 mmHg 62%
22:00 +21°C° 0.1 mm 1 m/S 760 mmHg 62%
23:00 +19°C° 0.1 mm 2 m/S 760 mmHg 64%

19 Juli, Sonntag

Zeit Temperatur Niederschläge Wind Luftdruck Luftfeuchtigkeit
00:00 +19°C° 0.1 mm 2 m/S 760 mmHg 67%
01:00 +19°C° 0.1 mm 2 m/S 760 mmHg 70%
02:00 +18°C° 0 mm 2 m/S 760 mmHg 74%
03:00 +18°C° 0 mm 2 m/S 760 mmHg 77%
04:00 +18°C° 0 mm 2 m/S 760 mmHg 81%
05:00 +19°C° 0 mm 2 m/S 760 mmHg 80%
06:00 +20°C° 0 mm 2 m/S 760 mmHg 78%
07:00 +21°C° 0 mm 3 m/S 760 mmHg 77%
08:00 +23°C° 0 mm 2 m/S 760 mmHg 71%
09:00 +25°C° 0 mm 2 m/S 760 mmHg 65%
10:00 +26°C° 0 mm 2 m/S 760 mmHg 59%
11:00 +27°C° 0 mm 2 m/S 760 mmHg 57%
12:00 +27°C° 0 mm 2 m/S 759 mmHg 54%
13:00 +28°C° 0 mm 2 m/S 759 mmHg 51%
14:00 +28°C° 0 mm 2 m/S 759 mmHg 51%
15:00 +29°C° 0 mm 2 m/S 759 mmHg 51%
16:00 +29°C° 0 mm 2 m/S 758 mmHg 51%
17:00 +27°C° 0 mm 2 m/S 758 mmHg 57%
18:00 +26°C° 0 mm 2 m/S 758 mmHg 63%
19:00 +25°C° 0 mm 3 m/S 758 mmHg 69%
20:00 +24°C° 0 mm 3 m/S 759 mmHg 70%
21:00 +23°C° 0 mm 2 m/S 759 mmHg 70%
22:00 +21°C° 0 mm 2 m/S 760 mmHg 71%
23:00 +20°C° 0 mm 2 m/S 760 mmHg 72%

20 Juli, Montag

Zeit Temperatur Niederschläge Wind Luftdruck Luftfeuchtigkeit
00:00 +21°C° 0 mm 1 m/S 760 mmHg 73%
01:00 +21°C° 0 mm 1 m/S 760 mmHg 74%
02:00 +21°C° 0 mm 1 m/S 760 mmHg 74%
03:00 +19°C° 0 mm 2 m/S 760 mmHg 75%
04:00 +19°C° 0 mm 2 m/S 760 mmHg 76%
05:00 +20°C° 0 mm 2 m/S 760 mmHg 75%
06:00 +22°C° 0 mm 1 m/S 760 mmHg 73%
07:00 +23°C° 0 mm 1 m/S 760 mmHg 72%
08:00 +25°C° 0 mm 1 m/S 760 mmHg 67%
09:00 +26°C° 0 mm 1 m/S 760 mmHg 63%
10:00 +28°C° 0 mm 1 m/S 760 mmHg 58%
11:00 +29°C° 0 mm 1 m/S 760 mmHg 55%
12:00 +30°C° 0 mm 2 m/S 760 mmHg 53%
13:00 +31°C° 0 mm 2 m/S 760 mmHg 50%
14:00 +31°C° 0 mm 2 m/S 760 mmHg 50%
15:00 +31°C° 0 mm 2 m/S 760 mmHg 50%
16:00 +31°C° 0 mm 3 m/S 759 mmHg 51%
17:00 +29°C° 0 mm 3 m/S 759 mmHg 59%
18:00 +28°C° 0 mm 3 m/S 760 mmHg 66%
19:00 +26°C° 0 mm 4 m/S 760 mmHg 74%
20:00 +25°C° 0 mm 3 m/S 760 mmHg 77%
21:00 +24°C° 0 mm 3 m/S 760 mmHg 79%
22:00 +23°C° 0 mm 2 m/S 761 mmHg 82%
23:00 +23°C° 0 mm 2 m/S 761 mmHg 82%

21 Juli, Dienstag

Zeit Temperatur Niederschläge Wind Luftdruck Luftfeuchtigkeit
00:00 +23°C° 0 mm 2 m/S 761 mmHg 82%
01:00 +23°C° 0 mm 2 m/S 761 mmHg 83%
02:00 +21°C° 0 mm 2 m/S 761 mmHg 83%
03:00 +21°C° 0 mm 2 m/S 761 mmHg 84%
04:00 +20°C° 0 mm 2 m/S 761 mmHg 85%
05:00 +21°C° 0 mm 2 m/S 761 mmHg 83%
06:00 +23°C° 0 mm 2 m/S 761 mmHg 80%
07:00 +24°C° 0 mm 2 m/S 762 mmHg 78%
08:00 +26°C° 0 mm 2 m/S 762 mmHg 73%
09:00 +27°C° 0 mm 2 m/S 762 mmHg 68%
10:00 +29°C° 0 mm 2 m/S 762 mmHg 63%
11:00 +29°C° 0 mm 2 m/S 761 mmHg 61%
12:00 +30°C° 0 mm 2 m/S 761 mmHg 59%
13:00 +31°C° 0 mm 2 m/S 761 mmHg 57%
14:00 +31°C° 0 mm 2 m/S 761 mmHg 57%
15:00 +31°C° 0 mm 2 m/S 760 mmHg 56%
16:00 +31°C° 0 mm 2 m/S 760 mmHg 56%
17:00 +30°C° 0 mm 3 m/S 760 mmHg 63%
18:00 +28°C° 0 mm 3 m/S 760 mmHg 69%
19:00 +27°C° 0 mm 3 m/S 760 mmHg 76%
20:00 +26°C° 0 mm 3 m/S 760 mmHg 78%
21:00 +25°C° 0 mm 2 m/S 760 mmHg 80%
22:00 +24°C° 0 mm 2 m/S 761 mmHg 82%
23:00 +24°C° 0 mm 2 m/S 761 mmHg 83%
Mehr zeigen